| time (UTC) | temp F | wind direction | speed MPH | gust MPH | rain 1hr in | rain 24hr in | rain mn in | humidity % | barometer mb |
| 20260509193516 | 73 | 271 | 3.0 | 12.0 | 0.00 | 0.00 | 0.00 | 18 | 1019.8 |
| 20260509193031 | 72 | 65 | 4.0 | 8.0 | 0.00 | 0.00 | 0.00 | 19 | 1019.9 |
| 20260509192513 | 72 | 277 | 2.0 | 11.0 | 0.00 | 0.00 | 0.00 | 18 | 1019.8 |
| 20260509192017 | 71 | 248 | 4.0 | 11.0 | 0.00 | 0.00 | 0.00 | 18 | 1020.0 |
| 20260509191530 | 72 | 274 | 2.0 | 10.0 | 0.00 | 0.00 | 0.00 | 18 | 1020.0 |
| 20260509191013 | 73 | 253 | 3.0 | 13.0 | 0.00 | 0.00 | 0.00 | 17 | 1019.9 |
| 20260509190513 | 73 | 267 | 3.0 | 13.0 | 0.00 | 0.00 | 0.00 | 18 | 1020.0 |
| 20260509190032 | 72 | 227 | 3.0 | 13.0 | 0.00 | 0.00 | 0.00 | 19 | 1020.0 |
| 20260509185511 | 72 | 325 | 3.0 | 11.0 | 0.00 | 0.00 | 0.00 | 18 | 1020.1 |
| 20260509185012 | 72 | 278 | 4.0 | 11.0 | 0.00 | 0.00 | 0.00 | 18 | 1020.0 |
| 20260509184538 | 72 | 306 | 4.0 | 11.0 | 0.00 | 0.00 | 0.00 | 18 | 1020.2 |
| 20260509184013 | 72 | 255 | 3.0 | 11.0 | 0.00 | 0.00 | 0.00 | 18 | 1019.9 |
| 20260509183513 | 72 | 282 | 4.0 | 11.0 | 0.00 | 0.00 | 0.00 | 19 | 1020.1 |
| 20260509183030 | 71 | 240 | 2.0 | 8.0 | 0.00 | 0.00 | 0.00 | 18 | 1020.2 |
| 20260509182514 | 71 | 304 | 2.0 | 8.0 | 0.00 | 0.00 | 0.00 | 21 | 1020.0 |
| 20260509182013 | 71 | 0 | 3.0 | 8.0 | 0.00 | 0.00 | 0.00 | 18 | 1020.1 |
| 20260509181534 | 71 | 268 | 2.0 | 8.0 | 0.00 | 0.00 | 0.00 | 19 | 1020.4 |
| 20260509181014 | 71 | 269 | 2.0 | 8.0 | 0.00 | 0.00 | 0.00 | 19 | 1020.4 |
| 20260509180514 | 70 | 283 | 3.0 | 9.0 | 0.00 | 0.00 | 0.00 | 20 | 1020.3 |
| 20260509180032 | 70 | 252 | 2.0 | 9.0 | 0.00 | 0.00 | 0.00 | 19 | 1020.3 |
| 20260509175516 | 70 | 249 | 4.0 | 8.0 | 0.00 | 0.00 | 0.00 | 19 | 1020.4 |
| 20260509175015 | 70 | 255 | 3.0 | 6.0 | 0.00 | 0.00 | 0.00 | 19 | 1020.4 |
| 20260509174535 | 69 | 55 | 1.0 | 7.0 | 0.00 | 0.00 | 0.00 | 21 | 1020.3 |
| 20260509174014 | 69 | 239 | 3.0 | 9.0 | 0.00 | 0.00 | 0.00 | 20 | 1020.5 |
| 20260509173513 | 69 | 283 | 4.0 | 9.0 | 0.00 | 0.00 | 0.00 | 19 | 1020.6 |
| 20260509173030 | 69 | 284 | 2.0 | 9.0 | 0.00 | 0.00 | 0.00 | 22 | 1020.5 |
| 20260509172514 | 68 | 282 | 1.0 | 10.0 | 0.00 | 0.00 | 0.00 | 20 | 1020.6 |
| 20260509172015 | 68 | 226 | 3.0 | 10.0 | 0.00 | 0.00 | 0.00 | 21 | 1020.7 |
| 20260509171533 | 68 | 342 | 3.0 | 9.0 | 0.00 | 0.00 | 0.00 | 24 | 1020.6 |
| 20260509171011 | 68 | 16 | 2.0 | 8.0 | 0.00 | 0.00 | 0.00 | 21 | 1020.7 |
| 20260509170510 | 67 | 12 | 1.0 | 5.0 | 0.00 | 0.00 | 0.00 | 22 | 1020.6 |
| 20260509170032 | 67 | 268 | 2.0 | 9.0 | 0.00 | 0.00 | 0.00 | 23 | 1020.6 |
| 20260509165513 | 67 | 271 | 2.0 | 9.0 | 0.00 | 0.00 | 0.00 | 21 | 1020.7 |
| 20260509165014 | 67 | 310 | 2.0 | 5.0 | 0.00 | 0.00 | 0.00 | 23 | 1020.5 |
| 20260509164532 | 67 | 61 | 2.0 | 6.0 | 0.00 | 0.00 | 0.00 | 22 | 1020.5 |
| 20260509164014 | 67 | 278 | 2.0 | 10.0 | 0.00 | 0.00 | 0.00 | 22 | 1020.5 |
| 20260509163530 | 67 | 51 | 1.0 | 12.0 | 0.00 | 0.00 | 0.00 | 22 | 1020.5 |
| 20260509163041 | 67 | 280 | 3.0 | 13.0 | 0.00 | 0.00 | 0.00 | 26 | 1020.6 |
| 20260509162513 | 66 | 59 | 3.0 | 13.0 | 0.00 | 0.00 | 0.00 | 22 | 1020.5 |
| 20260509162014 | 66 | 320 | 2.0 | 9.0 | 0.00 | 0.00 | 0.00 | 23 | 1020.5 |
| 20260509161530 | 66 | 266 | 4.0 | 9.0 | 0.00 | 0.00 | 0.00 | 22 | 1020.5 |
| 20260509161011 | 65 | 306 | 2.0 | 10.0 | 0.00 | 0.00 | 0.00 | 23 | 1020.4 |
| 20260509160514 | 65 | 265 | 3.0 | 10.0 | 0.00 | 0.00 | 0.00 | 22 | 1020.5 |
| 20260509160032 | 64 | 285 | 2.0 | 6.0 | 0.00 | 0.00 | 0.00 | 26 | 1020.5 |
| 20260509155514 | 64 | 234 | 2.0 | 6.0 | 0.00 | 0.00 | 0.00 | 25 | 1020.5 |
| 20260509155015 | 63 | 294 | 3.0 | 6.0 | 0.00 | 0.00 | 0.00 | 26 | 1020.5 |
| 20260509154540 | 62 | 277 | 1.0 | 5.0 | 0.00 | 0.00 | 0.00 | 28 | 1020.4 |
| 20260509154016 | 61 | 272 | 2.0 | 5.0 | 0.00 | 0.00 | 0.00 | 29 | 1020.5 |
| 20260509153514 | 60 | 299 | 2.0 | 5.0 | 0.00 | 0.00 | 0.00 | 30 | 1020.6 |
| 20260509153033 | 59 | 195 | 0.0 | 3.0 | 0.00 | 0.00 | 0.00 | 31 | 1020.5 |
| 20260509152513 | 58 | 69 | 0.0 | 2.0 | 0.00 | 0.00 | 0.00 | 36 | 1020.6 |
| 20260509152016 | 56 | 71 | 0.0 | 2.0 | 0.00 | 0.00 | 0.00 | 41 | 1020.5 |
| 20260509151529 | 55 | 0 | 0.0 | 2.0 | 0.00 | 0.00 | 0.00 | 42 | 1020.6 |
| 20260509151013 | 54 | 0 | 0.0 | 2.0 | 0.00 | 0.00 | 0.00 | 44 | 1020.5 |
| 20260509150511 | 53 | 71 | 0.0 | 2.0 | 0.00 | 0.00 | 0.00 | 45 | 1020.6 |
| 20260509150029 | 53 | 0 | 0.0 | 2.0 | 0.00 | 0.00 | 0.00 | 45 | 1020.6 |
| 20260509145513 | 52 | 71 | 0.0 | 2.0 | 0.00 | 0.00 | 0.00 | 47 | 1020.6 |
| 20260509145013 | 51 | 71 | 0.0 | 2.0 | 0.00 | 0.00 | 0.00 | 47 | 1020.6 |
| 20260509144532 | 50 | 0 | 0.0 | 2.0 | 0.00 | 0.00 | 0.00 | 48 | 1020.7 |
| 20260509144013 | 50 | 71 | 0.0 | 2.0 | 0.00 | 0.00 | 0.00 | 48 | 1020.6 |
| 20260509143511 | 49 | 71 | 0.0 | 2.0 | 0.00 | 0.00 | 0.00 | 51 | 1020.7 |
| 20260509143042 | 48 | 0 | 0.0 | 2.0 | 0.00 | 0.00 | 0.00 | 51 | 1020.6 |
| 20260509142511 | 48 | 0 | 0.0 | 2.0 | 0.00 | 0.00 | 0.00 | 51 | 1020.7 |
| 20260509142011 | 47 | 0 | 0.0 | 2.0 | 0.00 | 0.00 | 0.00 | 52 | 1020.6 |
| 20260509141539 | 46 | 0 | 0.0 | 2.0 | 0.00 | 0.00 | 0.00 | 54 | 1020.5 |
| 20260509141014 | 45 | 71 | 0.0 | 2.0 | 0.00 | 0.00 | 0.00 | 56 | 1020.6 |
| 20260509140511 | 44 | 0 | 0.0 | 2.0 | 0.00 | 0.00 | 0.00 | 56 | 1020.6 |
| 20260509140030 | 43 | 0 | 0.0 | 2.0 | 0.00 | 0.00 | 0.00 | 58 | 1020.5 |
| 20260509135511 | 42 | 71 | 0.0 | 2.0 | 0.00 | 0.00 | 0.00 | 59 | 1020.4 |
| 20260509135014 | 42 | 0 | 0.0 | 2.0 | 0.00 | 0.00 | 0.00 | 60 | 1020.3 |
| 20260509134530 | 41 | 0 | 0.0 | 2.0 | 0.00 | 0.00 | 0.00 | 60 | 1020.3 |
| 20260509134012 | 41 | 0 | 0.0 | 2.0 | 0.00 | 0.00 | 0.00 | 60 | 1020.2 |
| 20260509133512 | 41 | 0 | 0.0 | 2.0 | 0.00 | 0.00 | 0.00 | 60 | 1020.2 |
| 20260509133029 | 40 | 71 | 0.0 | 2.0 | 0.00 | 0.00 | 0.00 | 60 | 1020.2 |
| 20260509132513 | 40 | 71 | 0.0 | 2.0 | 0.00 | 0.00 | 0.00 | 60 | 1020.2 |
| 20260509132013 | 40 | 0 | 0.0 | 2.0 | 0.00 | 0.00 | 0.00 | 61 | 1020.2 |
| 20260509131536 | 39 | 71 | 0.0 | 2.0 | 0.00 | 0.00 | 0.00 | 62 | 1020.1 |
| 20260509131018 | 39 | 0 | 0.0 | 1.0 | 0.00 | 0.00 | 0.00 | 60 | 1020.3 |
| 20260509130512 | 39 | 0 | 0.0 | 2.0 | 0.00 | 0.00 | 0.00 | 60 | 1020.2 |
| 20260509130039 | 39 | 0 | 0.0 | 2.0 | 0.00 | 0.00 | 0.00 | 61 | 1020.1 |
| 20260509125518 | 39 | 0 | 0.0 | 2.0 | 0.00 | 0.00 | 0.00 | 58 | 1020.1 |
| 20260509125013 | 39 | 0 | 0.0 | 2.0 | 0.00 | 0.00 | 0.00 | 58 | 1020.1 |
| 20260509124535 | 39 | 0 | 0.0 | 2.0 | 0.00 | 0.00 | 0.00 | 57 | 1020.0 |
| 20260509124013 | 39 | 0 | 0.0 | 1.0 | 0.00 | 0.00 | 0.00 | 56 | 1020.0 |
| 20260509123512 | 40 | 0 | 0.0 | 1.0 | 0.00 | 0.00 | 0.00 | 56 | 1019.9 |
| 20260509123043 | 40 | 0 | 0.0 | 1.0 | 0.00 | 0.00 | 0.00 | 55 | 1019.9 |
| 20260509122512 | 40 | 0 | 0.0 | 0.0 | 0.00 | 0.00 | 0.00 | 54 | 1019.8 |
| 20260509122013 | 41 | 0 | 0.0 | 2.0 | 0.00 | 0.00 | 0.00 | 55 | 1019.7 |
| 20260509121531 | 41 | 0 | 0.0 | 2.0 | 0.00 | 0.00 | 0.00 | 54 | 1019.5 |
| 20260509121012 | 41 | 75 | 0.0 | 2.0 | 0.00 | 0.00 | 0.00 | 52 | 1019.6 |
| 20260509120513 | 41 | 0 | 0.0 | 2.0 | 0.00 | 0.00 | 0.00 | 51 | 1019.5 |
| 20260509120030 | 42 | 0 | 0.0 | 2.0 | 0.00 | 0.00 | 0.00 | 53 | 1019.5 |
| 20260509115511 | 42 | 0 | 0.0 | 2.0 | 0.00 | 0.00 | 0.00 | 52 | 1019.5 |
| 20260509115020 | 41 | 195 | 0.0 | 2.0 | 0.00 | 0.00 | 0.00 | 52 | 1019.3 |
| 20260509114535 | 41 | 0 | 0.0 | 3.0 | 0.00 | 0.00 | 0.00 | 52 | 1019.1 |
| 20260509114014 | 41 | 165 | 0.0 | 3.0 | 0.00 | 0.00 | 0.00 | 54 | 1019.0 |
| 20260509113514 | 41 | 59 | 0.0 | 2.0 | 0.00 | 0.00 | 0.00 | 55 | 1019.1 |
| 20260509113036 | 41 | 59 | 0.0 | 2.0 | 0.00 | 0.00 | 0.00 | 56 | 1018.7 |
| 20260509112511 | 41 | 59 | 0.0 | 2.0 | 0.00 | 0.00 | 0.00 | 55 | 1018.4 |
| 20260509112013 | 41 | 59 | 0.0 | 1.0 | 0.00 | 0.00 | 0.00 | 55 | 1018.4 |
| 20260509111542 | 40 | 0 | 0.0 | 1.0 | 0.00 | 0.00 | 0.00 | 55 | 1018.4 |
| 20260509111014 | 40 | 0 | 0.0 | 0.0 | 0.00 | 0.00 | 0.00 | 56 | 1018.4 |
| 20260509110513 | 40 | 0 | 0.0 | 0.0 | 0.00 | 0.00 | 0.00 | 56 | 1018.3 |
| 20260509110029 | 40 | 0 | 0.0 | 0.0 | 0.00 | 0.00 | 0.00 | 56 | 1018.4 |
| 20260509105514 | 40 | 0 | 0.0 | 0.0 | 0.00 | 0.00 | 0.00 | 56 | 1018.3 |
| 20260509105010 | 40 | 0 | 0.0 | 1.0 | 0.00 | 0.00 | 0.00 | 56 | 1018.3 |
| 20260509104534 | 41 | 0 | 0.0 | 2.0 | 0.00 | 0.00 | 0.00 | 56 | 1018.3 |
| 20260509104011 | 41 | 0 | 0.0 | 2.0 | 0.00 | 0.00 | 0.00 | 56 | 1018.4 |
| 20260509103514 | 41 | 0 | 0.0 | 2.0 | 0.00 | 0.00 | 0.00 | 56 | 1018.3 |
| 20260509103030 | 41 | 59 | 0.0 | 2.0 | 0.00 | 0.00 | 0.00 | 56 | 1018.4 |
| 20260509102514 | 41 | 59 | 0.0 | 2.0 | 0.00 | 0.00 | 0.00 | 56 | 1018.4 |
| 20260509102010 | 41 | 0 | 0.0 | 2.0 | 0.00 | 0.00 | 0.00 | 56 | 1018.5 |
| 20260509101534 | 41 | 59 | 0.0 | 2.0 | 0.00 | 0.00 | 0.00 | 57 | 1018.6 |
| 20260509101011 | 41 | 0 | 0.0 | 2.0 | 0.00 | 0.00 | 0.00 | 56 | 1018.7 |
| 20260509100514 | 41 | 0 | 0.0 | 2.0 | 0.00 | 0.00 | 0.00 | 55 | 1018.8 |
| 20260509100033 | 41 | 0 | 0.0 | 2.0 | 0.00 | 0.00 | 0.00 | 55 | 1018.8 |
| 20260509095512 | 41 | 0 | 0.0 | 2.0 | 0.00 | 0.00 | 0.00 | 55 | 1018.9 |
| 20260509095011 | 41 | 59 | 0.0 | 2.0 | 0.00 | 0.00 | 0.00 | 56 | 1018.9 |
| 20260509094534 | 40 | 0 | 0.0 | 2.0 | 0.00 | 0.00 | 0.00 | 56 | 1018.8 |
| 20260509094014 | 40 | 59 | 0.0 | 2.0 | 0.00 | 0.00 | 0.00 | 56 | 1018.8 |
| 20260509093511 | 40 | 0 | 0.0 | 2.0 | 0.00 | 0.00 | 0.00 | 56 | 1018.7 |
| 20260509093033 | 40 | 0 | 0.0 | 2.0 | 0.00 | 0.00 | 0.00 | 56 | 1018.7 |
| 20260509092515 | 40 | 0 | 0.0 | 2.0 | 0.00 | 0.00 | 0.00 | 57 | 1018.9 |
| 20260509092014 | 40 | 59 | 0.0 | 2.0 | 0.00 | 0.00 | 0.00 | 58 | 1018.9 |
| 20260509091537 | 40 | 59 | 0.0 | 2.0 | 0.00 | 0.00 | 0.00 | 58 | 1018.7 |
| 20260509091014 | 40 | 0 | 0.0 | 0.0 | 0.00 | 0.00 | 0.00 | 57 | 1018.7 |
| 20260509090514 | 40 | 0 | 0.0 | 2.0 | 0.00 | 0.00 | 0.00 | 57 | 1018.7 |
| 20260509090032 | 40 | 0 | 0.0 | 2.0 | 0.00 | 0.00 | 0.00 | 57 | 1018.8 |
| 20260509085511 | 40 | 0 | 0.0 | 2.0 | 0.00 | 0.00 | 0.00 | 57 | 1018.8 |
| 20260509085012 | 40 | 0 | 0.0 | 2.0 | 0.00 | 0.00 | 0.00 | 57 | 1018.9 |
| 20260509084532 | 40 | 59 | 0.0 | 0.0 | 0.00 | 0.00 | 0.00 | 57 | 1018.9 |
| 20260509084013 | 40 | 0 | 0.0 | 0.0 | 0.00 | 0.00 | 0.00 | 55 | 1019.1 |
| 20260509083512 | 40 | 0 | 0.0 | 0.0 | 0.00 | 0.00 | 0.00 | 55 | 1019.1 |
| 20260509083039 | 41 | 0 | 0.0 | 0.0 | 0.00 | 0.00 | 0.00 | 56 | 1019.1 |
| 20260509082512 | 41 | 0 | 0.0 | 2.0 | 0.00 | 0.00 | 0.00 | 55 | 1019.1 |
| 20260509082013 | 41 | 0 | 0.0 | 2.0 | 0.00 | 0.00 | 0.00 | 55 | 1019.1 |
| 20260509081533 | 41 | 0 | 0.0 | 2.0 | 0.00 | 0.00 | 0.00 | 55 | 1019.1 |
| 20260509081012 | 41 | 0 | 0.0 | 2.0 | 0.00 | 0.00 | 0.00 | 55 | 1019.1 |
| 20260509080515 | 41 | 59 | 0.0 | 2.0 | 0.00 | 0.00 | 0.00 | 54 | 1019.2 |
| 20260509080034 | 41 | 59 | 0.0 | 2.0 | 0.00 | 0.00 | 0.00 | 54 | 1019.2 |
| 20260509075510 | 41 | 0 | 0.0 | 0.0 | 0.00 | 0.00 | 0.00 | 54 | 1019.2 |
| 20260509075015 | 41 | 0 | 0.0 | 0.0 | 0.00 | 0.00 | 0.00 | 53 | 1019.2 |
| 20260509074531 | 41 | 0 | 0.0 | 0.0 | 0.00 | 0.00 | 0.00 | 52 | 1019.3 |
| 20260509074016 | 42 | 0 | 0.0 | 2.0 | 0.00 | 0.00 | 0.00 | 52 | 1019.3 |
| 20260509073511 | 42 | 0 | 0.0 | 2.0 | 0.00 | 0.00 | 0.00 | 51 | 1019.4 |
| 20260509073038 | 42 | 59 | 0.0 | 2.0 | 0.00 | 0.00 | 0.00 | 52 | 1019.5 |
| 20260509072514 | 42 | 59 | 0.0 | 2.0 | 0.00 | 0.00 | 0.00 | 51 | 1019.5 |
| 20260509072012 | 42 | 0 | 0.0 | 2.0 | 0.00 | 0.00 | 0.00 | 52 | 1019.5 |
| 20260509071532 | 42 | 59 | 0.0 | 2.0 | 0.00 | 0.00 | 0.00 | 52 | 1019.5 |
| 20260509071011 | 42 | 0 | 0.0 | 1.0 | 0.00 | 0.00 | 0.00 | 54 | 1019.5 |
| 20260509070512 | 42 | 0 | 0.0 | 0.0 | 0.00 | 0.00 | 0.00 | 50 | 1019.5 |
| 20260509070033 | 43 | 0 | 0.0 | 0.0 | 0.00 | 0.00 | 0.00 | 50 | 1019.6 |
| 20260509065516 | 43 | 0 | 0.0 | 2.0 | 0.00 | 0.00 | 0.00 | 51 | 1019.6 |
| 20260509065011 | 43 | 0 | 0.0 | 2.0 | 0.00 | 0.00 | 0.00 | 50 | 1019.7 |
| 20260509064533 | 44 | 0 | 0.0 | 2.0 | 0.00 | 0.00 | 0.00 | 47 | 1019.6 |
| 20260509064014 | 44 | 0 | 0.0 | 0.0 | 0.00 | 0.00 | 0.00 | 48 | 1019.7 |
| 20260509063511 | 44 | 0 | 0.0 | 0.0 | 0.00 | 0.00 | 0.00 | 47 | 1019.7 |
| 20260509063036 | 45 | 0 | 0.0 | 0.0 | 0.00 | 0.00 | 0.00 | 45 | 1019.6 |
| 20260509062510 | 45 | 0 | 0.0 | 0.0 | 0.00 | 0.00 | 0.00 | 45 | 1019.7 |
| 20260509062013 | 45 | 0 | 0.0 | 0.0 | 0.00 | 0.00 | 0.00 | 44 | 1019.7 |
| 20260509061542 | 45 | 0 | 0.0 | 0.0 | 0.00 | 0.00 | 0.00 | 44 | 1019.7 |
| 20260509061013 | 45 | 0 | 0.0 | 0.0 | 0.00 | 0.00 | 0.00 | 44 | 1019.7 |
| 20260509060510 | 45 | 0 | 0.0 | 0.0 | 0.00 | 0.00 | 0.00 | 44 | 1019.7 |
| 20260509060031 | 45 | 0 | 0.0 | 0.0 | 0.00 | 0.00 | 0.00 | 44 | 1019.6 |
| 20260509055520 | 46 | 0 | 0.0 | 2.0 | 0.00 | 0.00 | 0.00 | 44 | 1019.5 |
| 20260509055017 | 46 | 0 | 0.0 | 2.0 | 0.00 | 0.00 | 0.00 | 44 | 1019.6 |
| 20260509054531 | 46 | 0 | 0.0 | 2.0 | 0.00 | 0.00 | 0.00 | 44 | 1019.5 |
| 20260509054014 | 46 | 0 | 0.0 | 2.0 | 0.00 | 0.00 | 0.00 | 44 | 1019.5 |
| 20260509053513 | 46 | 0 | 0.0 | 2.0 | 0.00 | 0.00 | 0.00 | 44 | 1019.5 |
| 20260509053050 | 46 | 59 | 0.0 | 2.0 | 0.00 | 0.00 | 0.00 | 43 | 1019.5 |
| 20260509052511 | 46 | 0 | 0.0 | 2.0 | 0.00 | 0.00 | 0.00 | 43 | 1019.4 |
| 20260509052012 | 46 | 0 | 0.0 | 0.0 | 0.00 | 0.00 | 0.00 | 43 | 1019.5 |
| 20260509051534 | 46 | 0 | 0.0 | 2.0 | 0.00 | 0.00 | 0.00 | 43 | 1019.5 |
| 20260509051014 | 46 | 0 | 0.0 | 2.0 | 0.00 | 0.00 | 0.00 | 43 | 1019.5 |
| 20260509050511 | 46 | 0 | 0.0 | 0.0 | 0.00 | 0.00 | 0.00 | 43 | 1019.5 |
| 20260509050031 | 47 | 0 | 0.0 | 0.0 | 0.00 | 0.00 | 0.00 | 42 | 1019.5 |
| 20260509045514 | 47 | 0 | 0.0 | 0.0 | 0.00 | 0.00 | 0.00 | 42 | 1019.5 |
| 20260509045011 | 47 | 0 | 0.0 | 0.0 | 0.00 | 0.00 | 0.00 | 43 | 1019.6 |
| 20260509044538 | 47 | 0 | 0.0 | 0.0 | 0.00 | 0.00 | 0.00 | 41 | 1019.6 |
| 20260509044011 | 48 | 0 | 0.0 | 0.0 | 0.00 | 0.00 | 0.00 | 43 | 1019.6 |
| 20260509043510 | 48 | 0 | 0.0 | 1.0 | 0.00 | 0.00 | 0.00 | 43 | 1019.6 |
| 20260509043030 | 48 | 0 | 0.0 | 2.0 | 0.00 | 0.00 | 0.00 | 42 | 1019.6 |
| 20260509042512 | 49 | 0 | 0.0 | 2.0 | 0.00 | 0.00 | 0.00 | 41 | 1019.6 |
| 20260509042014 | 49 | 59 | 0.0 | 2.0 | 0.00 | 0.00 | 0.00 | 41 | 1019.6 |
| 20260509041530 | 49 | 0 | 0.0 | 2.0 | 0.00 | 0.00 | 0.00 | 40 | 1019.6 |
| 20260509041014 | 50 | 0 | 0.0 | 2.0 | 0.00 | 0.00 | 0.00 | 40 | 1019.6 |
| 20260509040513 | 50 | 59 | 0.0 | 2.0 | 0.00 | 0.00 | 0.00 | 38 | 1019.5 |
| 20260509040033 | 51 | 0 | 0.0 | 2.0 | 0.00 | 0.00 | 0.00 | 39 | 1019.5 |
| 20260509035547 | 51 | 59 | 0.0 | 2.0 | 0.00 | 0.00 | 0.00 | 38 | 1019.4 |
| 20260509034535 | 52 | 59 | 0.0 | 2.0 | 0.00 | 0.00 | 0.00 | 36 | 1019.3 |
| 20260509034010 | 53 | 59 | 0.0 | 2.0 | 0.00 | 0.00 | 0.00 | 34 | 1019.3 |
| 20260509033515 | 53 | 0 | 0.0 | 2.0 | 0.00 | 0.00 | 0.00 | 33 | 1019.3 |
| 20260509033044 | 54 | 0 | 0.0 | 0.0 | 0.00 | 0.00 | 0.00 | 33 | 1019.3 |
| 20260509032511 | 54 | 0 | 0.0 | 0.0 | 0.00 | 0.00 | 0.00 | 32 | 1019.2 |
| 20260509032016 | 55 | 0 | 0.0 | 0.0 | 0.00 | 0.00 | 0.00 | 31 | 1019.2 |
| 20260509031533 | 56 | 0 | 0.0 | 0.0 | 0.00 | 0.00 | 0.00 | 30 | 1019.2 |
| 20260509031012 | 56 | 0 | 0.0 | 2.0 | 0.00 | 0.00 | 0.00 | 30 | 1019.2 |
| 20260509030514 | 57 | 0 | 0.0 | 2.0 | 0.00 | 0.00 | 0.00 | 29 | 1019.1 |
| 20260509030030 | 58 | 59 | 0.0 | 2.0 | 0.00 | 0.00 | 0.00 | 31 | 1019.0 |
| 20260509025514 | 58 | 0 | 0.0 | 0.0 | 0.00 | 0.00 | 0.00 | 28 | 1018.9 |
| 20260509025013 | 59 | 0 | 0.0 | 0.0 | 0.00 | 0.00 | 0.00 | 28 | 1018.7 |
| 20260509024530 | 60 | 0 | 0.0 | 2.0 | 0.00 | 0.00 | 0.00 | 27 | 1018.7 |
| 20260509024014 | 60 | 0 | 0.0 | 2.0 | 0.00 | 0.00 | 0.00 | 26 | 1018.6 |
| 20260509023514 | 61 | 0 | 0.0 | 2.0 | 0.00 | 0.00 | 0.00 | 25 | 1018.6 |
| 20260509023033 | 62 | 0 | 0.0 | 2.0 | 0.00 | 0.00 | 0.00 | 25 | 1018.6 |
| 20260509022515 | 63 | 0 | 0.0 | 2.0 | 0.00 | 0.00 | 0.00 | 24 | 1018.6 |
| 20260509022012 | 63 | 0 | 0.0 | 2.0 | 0.00 | 0.00 | 0.00 | 23 | 1018.5 |
| 20260509021530 | 64 | 59 | 0.0 | 2.0 | 0.00 | 0.00 | 0.00 | 23 | 1018.4 |
| 20260509021011 | 65 | 59 | 0.0 | 2.0 | 0.00 | 0.00 | 0.00 | 22 | 1018.4 |
| 20260509020514 | 66 | 59 | 0.0 | 2.0 | 0.00 | 0.00 | 0.00 | 21 | 1018.3 |
| 20260509020036 | 67 | 0 | 0.0 | 2.0 | 0.00 | 0.00 | 0.00 | 21 | 1018.2 |
| 20260509015511 | 67 | 0 | 0.0 | 3.0 | 0.00 | 0.00 | 0.00 | 20 | 1018.2 |
| 20260509015013 | 68 | 59 | 0.0 | 3.0 | 0.00 | 0.00 | 0.00 | 20 | 1018.2 |
| 20260509014535 | 68 | 270 | 0.0 | 2.0 | 0.00 | 0.00 | 0.00 | 19 | 1018.2 |
| 20260509014017 | 68 | 0 | 0.0 | 2.0 | 0.00 | 0.00 | 0.00 | 19 | 1018.1 |
| 20260509013515 | 68 | 270 | 0.0 | 3.0 | 0.00 | 0.00 | 0.00 | 19 | 1018.1 |
| 20260509013034 | 69 | 52 | 1.0 | 3.0 | 0.00 | 0.00 | 0.00 | 19 | 1018.0 |
| 20260509012512 | 69 | 51 | 1.0 | 4.0 | 0.00 | 0.00 | 0.00 | 19 | 1018.0 |
| 20260509012011 | 69 | 269 | 1.0 | 4.0 | 0.00 | 0.00 | 0.00 | 19 | 1017.9 |
| 20260509011532 | 69 | 272 | 1.0 | 4.0 | 0.00 | 0.00 | 0.00 | 19 | 1017.9 |
| 20260509011012 | 69 | 249 | 1.0 | 4.0 | 0.00 | 0.00 | 0.00 | 19 | 1017.9 |
| 20260509010511 | 69 | 271 | 1.0 | 4.0 | 0.00 | 0.00 | 0.00 | 19 | 1018.0 |
| 20260509010031 | 70 | 267 | 0.0 | 4.0 | 0.00 | 0.00 | 0.00 | 19 | 1017.9 |
| 20260509005515 | 70 | 212 | 1.0 | 7.0 | 0.00 | 0.00 | 0.00 | 18 | 1017.9 |
| 20260509005011 | 71 | 221 | 2.0 | 11.0 | 0.00 | 0.00 | 0.00 | 18 | 1018.0 |
| 20260509004537 | 71 | 315 | 3.0 | 11.0 | 0.00 | 0.00 | 0.00 | 18 | 1017.9 |
| 20260509004014 | 72 | 284 | 4.0 | 9.0 | 0.00 | 0.00 | 0.00 | 17 | 1018.0 |
| 20260509003512 | 72 | 268 | 1.0 | 9.0 | 0.00 | 0.00 | 0.00 | 17 | 1017.9 |
| 20260509003037 | 72 | 13 | 2.0 | 9.0 | 0.00 | 0.00 | 0.00 | 17 | 1017.9 |
| 20260509002514 | 72 | 295 | 3.0 | 9.0 | 0.00 | 0.00 | 0.00 | 17 | 1018.0 |
| 20260509002014 | 73 | 268 | 3.0 | 8.0 | 0.00 | 0.00 | 0.00 | 17 | 1018.0 |
| 20260509001532 | 74 | 55 | 2.0 | 7.0 | 0.00 | 0.00 | 0.00 | 17 | 1018.0 |
| 20260509001015 | 73 | 57 | 2.0 | 7.0 | 0.00 | 0.00 | 0.00 | 17 | 1017.9 |
| 20260509000514 | 73 | 315 | 1.0 | 5.0 | 0.00 | 0.00 | 0.00 | 18 | 1017.9 |
| 20260509000030 | 72 | 267 | 2.0 | 5.0 | 0.00 | 0.00 | 0.00 | 19 | 1017.9 |
| 20260508235511 | 72 | 248 | 1.0 | 10.0 | 0.00 | 0.00 | 0.00 | 17 | 1017.9 |
| 20260508235012 | 72 | 271 | 2.0 | 10.0 | 0.00 | 0.00 | 0.00 | 17 | 1017.9 |
| 20260508234531 | 73 | 204 | 3.0 | 10.0 | 0.00 | 0.00 | 0.00 | 17 | 1017.9 |
| 20260508234011 | 73 | 242 | 2.0 | 11.0 | 0.00 | 0.00 | 0.00 | 16 | 1017.9 |
| 20260508233512 | 73 | 234 | 3.0 | 11.0 | 0.00 | 0.00 | 0.00 | 16 | 1017.9 |
| 20260508233029 | 73 | 283 | 3.0 | 10.0 | 0.00 | 0.00 | 0.00 | 16 | 1018.0 |
| 20260508232511 | 73 | 281 | 4.0 | 7.0 | 0.00 | 0.00 | 0.00 | 16 | 1018.1 |
| 20260508232012 | 73 | 352 | 2.0 | 12.0 | 0.00 | 0.00 | 0.00 | 16 | 1017.9 |
| 20260508231530 | 73 | 221 | 4.0 | 12.0 | 0.00 | 0.00 | 0.00 | 16 | 1017.9 |
| 20260508231014 | 73 | 246 | 4.0 | 11.0 | 0.00 | 0.00 | 0.00 | 16 | 1017.9 |
| 20260508230511 | 73 | 312 | 3.0 | 9.0 | 0.00 | 0.00 | 0.00 | 16 | 1017.7 |
| 20260508230032 | 73 | 266 | 4.0 | 9.0 | 0.00 | 0.00 | 0.00 | 15 | 1017.9 |
| 20260508225516 | 74 | 271 | 3.0 | 9.0 | 0.00 | 0.00 | 0.00 | 16 | 1018.0 |
| 20260508225014 | 74 | 250 | 3.0 | 9.0 | 0.00 | 0.00 | 0.00 | 16 | 1017.8 |
| 20260508224531 | 74 | 281 | 3.0 | 10.0 | 0.00 | 0.00 | 0.00 | 16 | 1018.1 |
| 20260508224013 | 74 | 275 | 3.0 | 11.0 | 0.00 | 0.00 | 0.00 | 17 | 1018.4 |
| 20260508223510 | 74 | 281 | 4.0 | 11.0 | 0.00 | 0.00 | 0.00 | 16 | 1018.3 |
| 20260508223040 | 74 | 267 | 2.0 | 10.0 | 0.00 | 0.00 | 0.00 | 15 | 1018.2 |
| 20260508222514 | 74 | 275 | 3.0 | 9.0 | 0.00 | 0.00 | 0.00 | 15 | 1018.2 |
| 20260508222016 | 74 | 277 | 3.0 | 9.0 | 0.00 | 0.00 | 0.00 | 18 | 1018.3 |
| 20260508221529 | 74 | 263 | 3.0 | 9.0 | 0.00 | 0.00 | 0.00 | 16 | 1018.3 |
| 20260508221013 | 74 | 225 | 4.0 | 9.0 | 0.00 | 0.00 | 0.00 | 16 | 1018.2 |
| 20260508220512 | 73 | 268 | 2.0 | 10.0 | 0.00 | 0.00 | 0.00 | 17 | 1018.2 |
| 20260508220038 | 73 | 302 | 3.0 | 11.0 | 0.00 | 0.00 | 0.00 | 16 | 1018.4 |
| 20260508215511 | 73 | 275 | 5.0 | 11.0 | 0.00 | 0.00 | 0.00 | 16 | 1018.2 |
| 20260508215014 | 73 | 267 | 3.0 | 12.0 | 0.00 | 0.00 | 0.00 | 16 | 1018.3 |
| 20260508214530 | 73 | 253 | 4.0 | 15.0 | 0.00 | 0.00 | 0.00 | 17 | 1018.3 |
| 20260508214013 | 73 | 280 | 4.0 | 15.0 | 0.00 | 0.00 | 0.00 | 16 | 1018.6 |
| 20260508213510 | 73 | 255 | 4.0 | 12.0 | 0.00 | 0.00 | 0.00 | 16 | 1018.4 |
| 20260508213031 | 74 | 284 | 3.0 | 12.0 | 0.00 | 0.00 | 0.00 | 16 | 1018.4 |
| 20260508212511 | 74 | 205 | 4.0 | 10.0 | 0.00 | 0.00 | 0.00 | 19 | 1018.8 |
| 20260508212013 | 73 | 301 | 3.0 | 10.0 | 0.00 | 0.00 | 0.00 | 18 | 1018.5 |
| 20260508211539 | 73 | 267 | 3.0 | 8.0 | 0.00 | 0.00 | 0.00 | 16 | 1018.4 |
| 20260508211013 | 73 | 244 | 3.0 | 9.0 | 0.00 | 0.00 | 0.00 | 17 | 1018.5 |
| 20260508210526 | 73 | 62 | 4.0 | 9.0 | 0.00 | 0.00 | 0.00 | 17 | 1018.6 |
| 20260508210030 | 74 | 276 | 1.0 | 10.0 | 0.00 | 0.00 | 0.00 | 18 | 1018.5 |
| 20260508205510 | 73 | 279 | 4.0 | 10.0 | 0.00 | 0.00 | 0.00 | 18 | 1018.6 |
| 20260508205010 | 73 | 274 | 4.0 | 11.0 | 0.00 | 0.00 | 0.00 | 17 | 1018.6 |
| 20260508204530 | 73 | 13 | 3.0 | 11.0 | 0.00 | 0.00 | 0.00 | 19 | 1018.7 |
| 20260508204013 | 73 | 252 | 2.0 | 11.0 | 0.00 | 0.00 | 0.00 | 19 | 1018.6 |
| 20260508203513 | 73 | 276 | 3.0 | 8.0 | 0.00 | 0.00 | 0.00 | 18 | 1018.6 |
| 20260508203031 | 72 | 281 | 1.0 | 7.0 | 0.00 | 0.00 | 0.00 | 21 | 1018.7 |
| 20260508202511 | 72 | 268 | 1.0 | 8.0 | 0.00 | 0.00 | 0.00 | 19 | 1018.7 |
| 20260508202011 | 72 | 293 | 3.0 | 8.0 | 0.00 | 0.00 | 0.00 | 19 | 1018.9 |
| 20260508201535 | 71 | 321 | 3.0 | 8.0 | 0.00 | 0.00 | 0.00 | 21 | 1018.9 |
| 20260508201014 | 71 | 263 | 3.0 | 9.0 | 0.00 | 0.00 | 0.00 | 20 | 1018.8 |
| 20260508200510 | 71 | 217 | 3.0 | 9.0 | 0.00 | 0.00 | 0.00 | 22 | 1018.8 |
| 20260508200032 | 70 | 248 | 2.0 | 6.0 | 0.00 | 0.00 | 0.00 | 21 | 1018.8 |
| 20260508195513 | 71 | 159 | 2.0 | 9.0 | 0.00 | 0.00 | 0.00 | 19 | 1018.9 |
| 20260508195013 | 71 | 259 | 3.0 | 9.0 | 0.00 | 0.00 | 0.00 | 22 | 1019.0 |
| 20260508194532 | 71 | 284 | 3.0 | 9.0 | 0.00 | 0.00 | 0.00 | 24 | 1019.0 |
| 20260508194010 | 70 | 64 | 3.0 | 8.0 | 0.00 | 0.00 | 0.00 | 21 | 1018.9 |